Location: Dead Woman Crossing
(43.5369°N, 106.3228°W)
Time: 05:46:45
(UTC+00:00)

COSMOS 2251 DEB - Pass Details

Date: 06 December 2022
Orbit: 765 x 800 km, 74.0° (Epoch: 27 January)

Event Time Altitude Azimuth Distance (km) Brightness Sun altitude
Rises 13:21:03 0° 147° (SSE) 3,284 ? -11.1°
Reaches altitude 10° 13:24:44 10° 121° (ESE) 2,354 ? -10.4°
Maximum altitude 13:27:11 13° 93° (E) 2,126 ? -10.0°
Drops below altitude 10° 13:29:39 10° 66° (ENE) 2,352 ? -9.6°
Sets 13:33:18 0° 40° (NE) 3,278 ? -9.0°
